www.pogodaiklimat.ru

Погода и климат >> Архив погоды >> Мексика >> Queretaro


ПОГОДА в Queretaro

  • Прогноз погоды в Queretaro
  • Монитор погоды в Queretaro
  • Климат города

АРХИВ ПОГОДЫ в Queretaro

Время (UTC), дата Ветер
(напр.,м/с)
 
Видим.   Явления Облачность Т
(С)
Тd
(С)
f
(%)
Тe
(С)
Тes
(С)
Комфортность P
(гПа)
Po
(гПа)
Тmin
(С)
Tmax
(С)
R
(мм)
R24
(мм)
S
(см)
15 11.08 З 1 20 км 3/3 800 м
[Cu med, cong]
+19.2 +14.7 75 +22 +28 комфорт 1012.9 816.5
18 11.08 СЗ 2 20 км 6/3 840 м
[Cu med, cong Ac As]
+24.5 +14.4 53 +27 +37 жарко 1011.9 816.2 +15.8 +24.7
21 11.08 СЗ 2 20 км 8/3 870 м
[Cu Sc Ac inh]
+27.7 +14.2 44 +30 +35 жарко 1008.1 814.3
00 12.08 СЗ 4 20 км 8/4 600 м
[Cu med, cong Ac As]
+26.2 +14.1 47 +28 +29 жарко 1004.2 812.6 +15.8 +27.8
03 12.08 СВ 2 20 км слабый дождь {морось} 10/5 840 м
[Cb calv As op]
+19.6 +14.3 71 +22 +22 комфорт 1005.9 814.4 0.0
06 12.08 З 1 10 км {морось} 8/3 600 м
[Sc Ac cuf]
+18.4 +14.3 77 +20 +20 1009.6 816.8 0.0
09 12.08 З 1 10 км 6/1 750 м
[Cu hum Ac trans]
+17.8 +14.3 80 +19 +19 1010.6 816.4
12 12.08 З 1 5000 м 6/6 800 м
[Cu med, cong]
+16.1 +14.9 93 +17 +17 1012.4 816.7 +15.8 +27.8
15 12.08 З 1 20 км 8/6 800 м
[Cu med, cong Ac trans]
+17.4 +14.1 81 +18 +21 1014.4 817.3
18 12.08 СЗ 1 20 км 8/4 800 м
[Cu Sc Ac und]
+22.8 +13.7 56 +26 +34 жарко 1012.9 816.4 +15.8 +23.0
21 12.08 З 1 20 км 9/3 840 м
[Cu Sc As op]
+24.5 +15.9 59 +28 +32 душно 1010.0 815.0
00 13.08 ЮЗ 3 20 км слабый дождь {морось} 9/6 600 м
[Cu Sc Ac As]
+23.2 +14.9 60 +27 +27 душно 1006.6 813.5 0.0
03 13.08 ЮВ 3 20 км слабый дождь {морось} 10/5 840 м
[Cb calv As op]
+17.9 +14.7 82 +18 +18 1008.4 815.3 0.3
06 13.08 В 1 10 км {морось} 9/6 600 м
[Sc diur, vesp Ac cuf]
+17.0 +15.9 93 +18 +18 1010.3 816.6 1
09 13.08 В 1 10 км 8/5 750 м
[Sc Ac trans]
+16.6 +15.7 94 +17 +17 1012.4 816.9
12 13.08 СЗ 1 10 км 9/6 750 м
[Sc diur, vesp Ac trans]
+15.8 +14.3 91 +16 +16 1013.5 816.5 +15.5 +26.2
15 13.08 З 1 20 км {морось} 9/5 750 м
[Sc diur, vesp Ac und]
+17.4 +14.3 82 +18 +21 1014.9 817.3 0.0
18 13.08 СЗ 1 20 км 8/5 840 м
[Cu Sc Ac trans]
+27.5 +12.9 40 +29 +37 жарко 1012.9 816.3 +15.5 +27.7 0.0
21 13.08 З 1 20 км 5/5 870 м
[Cu med, cong]
+24.4 +15.9 59 +28 +37 душно 1008.6 814.0
00 14.08 СВ 3 20 км 9/6 600 м
[Cu Sc As op]
+21.0 +14.9 68 +25 +25 комфорт 1006.9 813.6 +15.5 +27.5
03 14.08 СЗ 2 20 км 9/6 840 м
[Cu Sc Ac As]
+18.4 +14.3 77 +19 +19 1008.1 814.9
06 14.08 В 1 10 км 6/3 750 м
[Cu hum Ac cuf]
+17.6 +14.7 83 +19 +19 1010.4 816.2 +15.5 +27.5
09 14.08 В 1 10 км 6/1 750 м
[Cu hum Ac cuf]
+17.0 +14.3 84 +18 +18 1011.7 816.3
12 14.08 В 2 10 км 5/5 750 м
[Sc diur, vesp]
+15.2 +13.1 87 +15 +15 1011.5 815.1 +14.9 +27.5
15 14.08 В 2 20 км 3/3 750 м
[Cu hum]
+17.4 +13.8 79 +18 +23 1012.7 815.5
18 14.08 В 2 20 км ясно +25.1 +14.6 52 +28 +49 жарко 1010.8 814.8 +14.9 +25.2
21 14.08 СВ 1 20 км 4/4 870 м
[Cu med, cong]
+28.7 +13.4 39 +30 +41 жарко 1005.9 812.8
00 15.08 Ю 2 20 км 9/9 600 м
[Cu med, cong]
+21.2 +14.8 67 +24 +24 комфорт 1005.0 812.9 +14.9 +25.8
03 15.08 СВ 1 5000 м 10/10 800 м
[Sc diur, vesp]
+18.9 +14.8 77 +21 +21 комфорт 1007.4 815.3
09 15.08 С 1 5000 м слабая морось 9/9 800 м
[Sc diur, vesp]
+16.1 +15.7 97 +17 +17 1010.0 814.9 1
12 15.08 штиль 0 10 км {морось} 9/9 600 м
[Sc diur, vesp]
+15.8 +14.6 93 +16 +16 1011.8 815.1 1
15 15.08 СВ 1 20 км 8/4 750 м
[Cu med, cong Ac und]
+18.3 +15.3 83 +20 +23 1014.4 816.9
18 15.08 ЮВ 1 18 км 4/4 800 м
[Cu med, cong]
+25.8 +15.9 54 +29 +44 душно 1012.1 815.9 +15.5 +25.9
21 15.08 СВ 2 18 км мгла {туман} 4/4 870 м
[Cu med, cong]
+27.4 +14.9 46 +30 +39 жарко 1007.5 813.7
00 16.08 СВ 5 18 км слабый дождь 10/6 600 м
[Cb calv As op]
+24.4 +14.9 55 +27 +27 жарко 1004.1 812.5 2
03 16.08 ЮВ 4 18 км слабый дождь 10/5 800 м
[Cb calv As op]
+17.2 +15.2 88 +17 +17 1007.0 815.0 14
06 16.08 В 1 10 км {дождь} 6/3 600 м
[Cu hum Ac cuf]
+16.2 +15.3 94 +17 +17 1010.2 816.5 16
09 16.08 В 1 10 км 4/1 750 м
[Cu hum Ac trans]
+16.0 +14.8 93 +17 +17 1011.6 816.1
12 16.08 штиль 0 10 км 8/3 750 м
[St Ac trans]
+15.9 +15.0 94 +16 +16 1014.8 817.1 +15.6 +27.8
15 16.08 СЗ 1 15 км 8/8 750 м
[Sc diur, vesp]
+17.6 +15.3 86 +19 +21 1016.1 817.9
18 16.08 С 1 20 км 6/6 800 м
[Cu med, cong]
+23.9 +15.8 60 +27 +37 жарко 1013.3 817.9 +15.6 +24.2
21 16.08 В 3 20 км 4/4 800 м
[Cu med, cong]
+28.3 +15.3 45 +31 +39 душно 1009.2 814.9
00 17.08 СВ 2 20 км слабый дождь 10/6 600 м
[Cb calv As op]
+21.4 +18.1 81 +26 +26 душно 1006.7 814.2 3
03 17.08 СЗ 2 20 км слабый дождь 10/5 800 м
[Cb calv As op]
+17.4 +15.8 90 +18 +18 1009.3 816.6 7
06 17.08 В 1 10 км {дождь} 4/0
[Ac trans]
+16.6 +15.4 93 +17 +17 1012.5 818.5 7
09 17.08 В 1 10 км 3/0 2000 м
[Ac trans]
+16.4 +15.5 94 +17 +17 1014.7 818.6
12 17.08 В 1 10 км 3/0 2000 м
[Ac trans]
+14.7 +13.5 93 +15 +15 1016.0 818.2 +14.4 +28.4
15 17.08 В 2 20 км 1/1 750 м
[Cu hum]
+17.7 +14.5 82 +18 +25 1016.9 818.5
18 17.08 В 2 20 км 1/1 800 м
[Cu hum]
+25.9 +14.7 50 +28 +47 жарко 1015.3 818.1 +14.4 +26.1
21 17.08 СВ 2 20 км 1/1 870 м
[Cu hum]
+28.7 +12.0 36 +30 +43 жарко 1010.0 815.5
00 18.08 СВ 4 20 км 3/3 600 м
[Cu med, cong]
+28.4 +12.6 38 +30 +30 жарко 1006.2 814.5 +14.4 +29.6
03 18.08 В 4 20 км 6/3 870 м
[Cu med, cong Ac As]
+22.0 +12.1 53 +24 +24 комфорт 1006.9 816.2
06 18.08 В 2 10 км 4/1 600 м
[Cu hum Ac trans]
+19.0 +13.0 68 +21 +21 комфорт 1010.8 818.9 +14.4 +29.6
09 18.08 В 2 10 км 3/0 2000 м
[Ac trans]
+18.0 +12.9 72 +19 +19 1011.7 818.2
12 18.08 В 1 10 км 4/0 2000 м
[Ac trans]
+15.5 +13.5 88 +16 +16 1013.1 817.5 +15.3 +29.6

 

Местоположение метеостанции Queretaro (Мексика): широта 20.58 долгота -100.40 высота над уровнем моря 1880 м.

В архиве по умолчанию представлена погода в Queretaro за последнюю неделю. Архивные данные за месяц целиком и за предыдущие месяцы, начиная с января 2011 года, Вы можете получить, выбрав интересующий диапазон дат из раскрывающегося списка и нажав кнопку "Ввод!".


*Определитесь, кто Вы:
робот инопланетянин человек

Внимание! Время в таблицах - всемирное. Для получения местного времени необходимо прибавить поправку, которая в Queretaro равна -6 ч.

Смотрите также архив погоды в соседних городах и на ближайших метеорологических станциях:

Погода в Guanajuato (Мексика) (95 км)
Погода в Morelia (Мексика) (122 км)
Погода в Rio Verde (Мексика) (156 км)
Погода в Toluca (Мексика) (163 км)
Погода в Pachuca (Мексика) (179 км)
Погода в Lagos De Moreno (Мексика) (180 км)
Погода в Mexico City (Мексика) (183 км)
Погода в Matlapa (Мексика) (185 км)
Погода в San Luis Potosi (Мексика) (185 км)
Погода в Institute of Geography (Мексика) (189 км)

Пояснения к столбцам:

Ветер - указаны скорость ветра в м/с - средняя за 10 мин, порывы в срок и между сроками (в фигурных скобках) и направление, откуда дует ветер: С - северный, СВ - северо-восточный, В - восточный, ЮВ - юго-восточный, Ю - южный, ЮЗ - юго-западный, З - западный, СЗ - северо-западный.
Видимость - горизонтальная дальность видимости в метрах или километрах. При видимости от 1 до 10 км при отсутствии осадков обычно наблюдается дымка, при ухудшении видимости до 1 км и менее - туман. В сухую погоду видимость может ухудшаться дымом, пылью или мглою.
Явления - указаны атмосферные явления, наблюдавшиеся в срок или в последний час перед сроком; фигурными скобками обозначены явления, наблюдавшиеся между сроками (за 1-3 часа до срока); квадратными скобками обозначены град или гололедные отложения с указанием их диаметра в мм.
Облачность - указаны через наклонную черту общая и нижняя облачность в баллах и высота нижней границы облаков в метрах; квадратными скобками обозначены формы облаков: Ci - перистые, Cs - перисто-слоистые, Cc - перисто-кучевые, Ac - высококучевые, As - высокослоистые, Sc - слоисто-кучевые, Ns - слоисто-дождевые, Cu - кучевые, Cb - кучево-дождевые. Подробнее классификацию облаков см. в Атласе облаков (PDF).
T - Температура воздуха - температура, измеренная на высоте 2 м над землей.
Td - Температура точки росы - температура, при понижении до которой содержащийся в воздухе водяной пар достигнет насыщения.
f - Относительная влажность воздуха - влажноcть воздуха, измеренная на высоте 2 м над землей.
Te - Эффективная температура - температура, которую ощущает одетый по сезону человек в тени. Характеристика душности погоды. При расчете учитывается влияние влажности воздуха и скорости ветра на теплоощущения человека.
Tes - Эффективная температура на солнце - температура, которую ощущает человек, с поправкой на солнечный нагрев. Характеристика знойности погоды. Зависит от высоты солнца над горизонтом, облачности и скорости ветра. Ночью, в пасмурную погоду, а также при ветре 12 м/с и более поправка равна нулю.
P - Атмосферное давление - приведенное к уровню моря атмосферное давление.
Po - Атмосферное давление - измеренное на уровне метеостанции атмосферное давление.
Tmin - Минимальная температура - минимум температуры воздуха на высоте 2 м над землей.
Tmax - Максимальная температура - максимум температуры воздуха на высоте 2 м над землей.
R - Количество осадков - Количество выпавших осадков за период времени, мм. При наведении курсора мыши на число - период времени, за который выпало указанное количество осадков.
R24 - Количество осадков - Количество выпавших осадков за 24 часа, мм.
S - Снежный покров - Высота снежного покрова, см. При наведении курсора мыши на число - состояние снежного покрова и степень покрытия местности в баллах.